HUANJING 1B (HJ-1B)

Last updated on Fri Oct 24 2025 00:02:30 GMT+0000 (Coordinated Universal Time)

1 33321U 08041B 25296.64836282 .00001850 00000+0 23359-3 0 9996 2 33321 97.6381 290.8771 0035372 238.5895 121.1859 14.82634521923357
UTC large
Height (km)
Speed (km/s)
/
Latitude / Longitude
Inclination (degrees)
Orbital Period (minutes)
Azimuth
Elevation
Range (km)
Doppler Factor

Next 0 passes for location: London (51.5072 / 0.1276)

Sorry there are no passes over London.